Spencer, IA

3:22 AM CDT on July 23, 2017 (GMT -0500)
Spencer Municipal

Weather History for KSPW - September, 2013

Change the Weather History Date:

Monday, September 23, 2013

  Actual Average Record
Temperature  
Mean Temperature 66 °F -  
Max Temperature 80 °F 68 °F 88 °F (2007)
Min Temperature 52 °F 40 °F 25 °F (2012)
Growing Degree Days 16 (Base 50)    
Moisture  
Dew Point 49 °F    
Average Humidity 59    
Maximum Humidity 86    
Minimum Humidity 35    
Precipitation  
Precipitation 0.00 in - - ()
Sea Level Pressure  
Sea Level Pressure 29.84 in    
Wind  
Wind Speed 14 mph (SE)    
Max Wind Speed 24 mph    
Max Gust Speed 34 mph    
Visibility 10 miles    
Events      
Averages and records for this station are not official NWS values.
T = Trace of Precipitation, MM = Missing Value Source: NWS Daily Summary

Daily Weather History Graph

Daily Weather History Graph

Search for Another Location

Airport or City:

Trip Planner

Search our weather history database for the weather conditions in past years. The results will help you decide how hot, cold, wet, or windy it might be!

Date:

Astronomy

Sep. 23, 2013 Rise Set
Actual Time 7:09 AM CDT 7:15 PM CDT
Civil Twilight 6:41 AM CDT 7:44 PM CDT
Nautical Twilight 6:07 AM CDT 8:17 PM CDT
Astronomical Twilight 5:33 AM CDT 8:51 PM CDT
Moon 9:41 PM CDT 11:37 AM CDT
Length of Visible Light 13h 03m
Length of Day
12h 06m
Waning Gibbous, 81% of the Moon is Illuminated
Sep 23
Waning Gibbous
Sep 26
Last Quarter
Oct 4
New
Oct 11
First Quarter
Oct 18
Full

Hourly Weather History & Observations

Time (CDT) Temp. Dew Point Humidity Pressure Visibility Wind Dir Wind Speed Gust Speed Precip Events Conditions
12:53 AM 59.0 °F 52.0 °F 78% 29.85 in 10.0 mi SSE 10.4 mph - N/A   Clear
1:53 AM 57.9 °F 51.1 °F 78% 29.86 in 10.0 mi South 5.8 mph - N/A   Clear
2:53 AM 57.0 °F 51.1 °F 81% 29.85 in 10.0 mi SE 11.5 mph - N/A   Clear
3:53 AM 55.9 °F 48.9 °F 77% 29.84 in 10.0 mi SSE 15.0 mph - N/A   Clear
4:53 AM 54.0 °F 48.0 °F 80% 29.84 in 10.0 mi SE 12.7 mph - N/A   Clear
5:53 AM 53.1 °F 48.0 °F 83% 29.83 in 10.0 mi SE 12.7 mph - N/A   Clear
6:53 AM 52.0 °F 46.9 °F 83% 29.86 in 10.0 mi SE 11.5 mph - N/A   Clear
7:53 AM 52.0 °F 48.0 °F 86% 29.87 in 10.0 mi SE 12.7 mph - N/A   Clear
8:53 AM 57.0 °F 48.9 °F 74% 29.87 in 10.0 mi SSE 12.7 mph - N/A   Clear
9:53 AM 64.0 °F 48.9 °F 58% 29.87 in 10.0 mi SSE 21.9 mph 26.5 mph N/A   Clear
10:53 AM 69.1 °F 50.0 °F 51% 29.86 in 10.0 mi South 24.2 mph 31.1 mph N/A   Clear
11:53 AM 72.0 °F 48.9 °F 44% 29.85 in 10.0 mi South 23.0 mph 28.8 mph N/A   Clear
12:53 PM 77.0 °F 48.9 °F 37% 29.83 in 10.0 mi SSE 19.6 mph 26.5 mph N/A   Clear
1:53 PM 78.1 °F 50.0 °F 37% 29.81 in 10.0 mi SSE 21.9 mph 28.8 mph N/A   Clear
2:53 PM 78.1 °F 48.9 °F 36% 29.79 in 10.0 mi SE 21.9 mph 34.5 mph N/A   Clear
3:53 PM 79.0 °F 48.9 °F 35% 29.78 in 10.0 mi SE 21.9 mph 29.9 mph N/A   Clear
4:53 PM 78.1 °F 48.0 °F 35% 29.78 in 10.0 mi SE 17.3 mph 31.1 mph N/A   Clear
5:53 PM 75.9 °F 46.9 °F 36% 29.79 in 10.0 mi SE 18.4 mph 27.6 mph N/A   Clear
6:53 PM 72.0 °F 46.0 °F 40% 29.82 in 10.0 mi SSE 13.8 mph - N/A   Clear
7:53 PM 66.9 °F 48.0 °F 51% 29.83 in 10.0 mi SE 9.2 mph - N/A   Clear
8:53 PM 64.0 °F 48.0 °F 56% 29.85 in 10.0 mi SE 9.2 mph - N/A   Clear
9:53 PM 62.1 °F 48.9 °F 62% 29.85 in 10.0 mi ESE 9.2 mph - N/A   Clear
10:53 PM 61.0 °F 48.0 °F 62% 29.86 in 10.0 mi ESE 10.4 mph - N/A   Clear
11:53 PM 59.0 °F 48.0 °F 67% 29.86 in 10.0 mi SE 10.4 mph - N/A   Clear